COSMOS 2251 DEB, 35711

Orbit data source: Space-Track

COSMOS 2251 DEB, 35711 is space debris in LEO originally from a launch on Wed, 16 Jun 1993 UTC launched from the Plesetsk Missile And Space Complex (PKMTR). The debris from Iridium 33, an American commercial communications satellite, has been tracked extensively since its accidental collision with the defunct Russian satellite Cosmos 2251 in 2009. This event, occurring at high speed in low Earth orbit (LEO), generated thousands of pieces of space debris, significantly increasing the risk of further collisions. The Iridium 33 debris cloud has impacted space traffic management and orbital debris mitigation strategies, making it a subject of ongoing study in space situational awareness.

Loading next visibility...
Identifier
35711, 1993-036AQG
Orbit
LEO
Country
Flag of CISCIS
Related business
Manufacturer
Unknown
Mission
Spacecraft
Bus & Motor
Unknown
Mass
Unknown
Launch date (UTC)
1993-06-16 (32 years ago)
Launch vehicle
Unknown
Launch site
Plesetsk Missile And Space Complex (PKMTR)
Object type
Payload
Rocket body
Debris
Shape & HBR
Unknown shape, 0.1 m
Radar Cross Section
Small (<0.1 m²)

Expand to show TLE details & history
Last TLE update: 2 days ago

TLE from 2 days ago
0 COSMOS 2251 DEB
1 35711U 93036AQG 25290.83123909  .00001551  00000-0  29003-3 0  9990
2 35711  74.0459 327.7168 0083752  83.5082 277.5613 14.63531793869537
Epoch: 2025-10-17T19:56Z
TLE epoch observation values (Epoch: 2025-10-17T19:56:59.057Z)
Latitude
0.00001°
Longitude
1.89977°
Altitude
677.144 km
Speed
7.522 km/s
True Right ascension
21h 50m 52s
True Declination
0° 00' 00"
Sunlit
Object was in full shadow at epoch
Visualization orbit readout
Latitude
Unknown
Longitude
Unknown
Altitude
Unknown
Speed
Unknown
Apparent Right ascension
Unknown
Apparent Declination
Unknown
Sunlit
N/A
Visualization observer readout
Local Sidereal Time
00:58:57
Azimuth
Unknown
Elevation
Unknown
Doppler factor
Unknown
Orbital elements
Apogee altitude
738.494 km
Perigee altitude
620.277 km
Semi-major axis
7,057.523 km
Eccentricity
0.00838
Inclination
74.0459°
RAAN
327.7168°
Arg. of periapsis
83.5082°
True anomaly
276.60865°
Mean anomaly
277.5613°
Eccentric anomaly
277.0851°
Mean motion
3.66071 °/min
Orbital period
98.34 mins
BSTAR
0.00029003

Documentation

Showing up to 5 results
|